Regional Weather Roundup
Issued by NWS

Home | Current Version | Previous Version | Text Only | Print | Product List | Glossary Off
Versions: 1 2 3 4 5 6 7 8 9 10 11 12 13 14 15 16 17 18 19 20 21 22 23 24 25 26 27 28 29 30 31 32 33 34 35 36 37 38 39 40 41 42 43 44 45 46 47 48 49 50

000
ASUS43 KMPX 252110
RWRMN
WEATHER ROUNDUP FOR MINNESOTA
NATIONAL WEATHER SERVICE TWIN CITIES/CHANHASSEN MN
400 PM CDT SUN JUN 25 2017


NOTE: "FAIR" INDICATES FEW OR NO CLOUDS BELOW 12,000 FEET WITH NO
SIGNIFICANT WEATHER AND/OR OBSTRUCTIONS TO VISIBILITY. N/A MEANS
CURRENT SKY AND/OR WEATHER CONDITIONS ARE NOT AVAILABLE.

MNZ060>063-068>070-252200-
   Twin Cities Metro

CITY           SKY/WX    TMP DP  RH WIND       PRES   REMARKS
TWIN CITIES    PTSUNNY   67  42  40 NW20G28   30.13F
ST PAUL        PTSUNNY   66  42  41 NW20      30.13S
CRYSTAL        MOSUNNY   66  40  38 W17       30.13S
BLAINE         MOSUNNY   70  41  35 NW16G22   30.13S
LAKEVILLE      MOSUNNY   66  45  45 NW14G22   30.14F
EDEN PRAIRIE   MOSUNNY   70  42  36 W15G25    30.13F
SOUTH ST PAUL  CLOUDY    67  40  37 W14G22    30.13S
LAKE ELMO      FAIR      64  45  48 NW12G21   30.14S
$$
MNZ001>005-007-008-013>017-022>024-027-028-252200-
   Northwest Minnesota

CITY           SKY/WX    TMP DP  RH WIND       PRES   REMARKS
BEMIDJI        CLOUDY    57  41  54 N26G33    30.16R
HALLOCK        MOSUNNY   63  43  48 N20       30.19S
ROSEAU         MOSUNNY   61  48  63 NW13      30.16F
WARROAD        SUNNY     55  48  76 NW8       30.17F
THIEF RVR FALL PTSUNNY   63  42  46 NW17G23   30.18F
CROOKSTON      MOSUNNY   64  39  39 N15       30.18F
FOSSTON        MOSUNNY   61  43  51 NW13G23   30.18S
DETROIT LAKES  SUNNY     63  41  45 NW15G22   30.19S
MOORHEAD       MOSUNNY   66  39  37 NW13G20   30.18F
PARK RAPIDS    MOSUNNY   66  36  32 NW20G28   30.15F
MAHNOMEN       CLOUDY    62  40  44 NW16      30.17F
$$
MNZ006-009>011-018-025>026-252200-
   North Central Minnesota

CITY           SKY/WX    TMP DP  RH WIND       PRES   REMARKS
BAUDETTE       SUNNY     60  45  57 NW16      30.15F
FLAG ISLAND    MOSUNNY   57  43  58 NW15      30.14F
INTL FALLS     PTSUNNY   56  45  66 E9        30.12S
WASKISH        PTSUNNY   55  48  76 NW8       30.15F
BIG FORK       CLOUDY    57  48  72 NW6       30.13F
LONGVILLE      PTSUNNY   61  46  59 NW5       30.14S
GRAND RAPIDS   PTSUNNY   60  39  45 NW17G25   30.14S
CRANE LAKE     CLOUDY    48  46  93 N6        30.14S
ORR            CLOUDY    57  43  58 CALM      30.09S
COOK           PTSUNNY   54  43  66 NW10G17   30.11S
WALKER         CLOUDY    58  40  51 NW7G21    30.14S
$$
MNZ012-019>021-037-252200-
   Northeast Minnesota

CITY           SKY/WX    TMP DP  RH WIND       PRES   REMARKS
DULUTH         PTSUNNY   58  44  60 N14G25    30.07S
ELY            LGT RAIN  50  48  93 NW9       30.08S
HIBBING        RAIN      51  48  89 NW13      30.11R FOG
EVELETH        MOSUNNY   58  42  57 N10G17    30.10F
DULUTH HARBOR  PTSUNNY   61  48  63 N14       30.08F
TWO HARBORS    CLOUDY    61  50  67 N7        30.05S
SILVER BAY     CLOUDY    54  48  82 NW6       30.04S
GRAND MARAIS     N/A     47  46  97 W5        30.05R
G MARAIS ARPRT LGT RAIN  48  45  87 CALM      30.04S
$$
MNZ029>031-032-039>041-046>048-054>057-064-252200-
   West Central Minnesota

CITY           SKY/WX    TMP DP  RH WIND       PRES   REMARKS
FERGUS FALLS   CLOUDY    63  43  48 NW16      30.16S
WHEATON        CLOUDY    61  48  63 NW7       30.22S
MORRIS         MOSUNNY   70  43  37 NW14G21   30.18F
ALEXANDRIA     MOSUNNY   65  42  43 NW16G25   30.19F
ELBOW LAKE     CLOUDY    61  46  56 W25G33    30.21R
WADENA         PTSUNNY   63  43  48 NW13G21   30.16F
GLENWOOD       SUNNY     64  43  45 NW13      30.19F
APPLETON       MOSUNNY   68  39  34 NW9G21    30.19F
BENSON         MOSUNNY   70  39  32 N14G25    30.20F
ORTONVILLE     PTSUNNY   66  45  45 W10       30.21S
MADISON        CLOUDY    68  45  42 NW9G20    30.21S
WILLMAR        FAIR      66  41  39 NW15G24   30.20F
$$
MNZ033>034-036-042>043-049>051-058-059-252200-
   Central Minnesota

CITY           SKY/WX    TMP DP  RH WIND       PRES   REMARKS
ST CLOUD       MOSUNNY   67  41  38 NW15G25   30.15S
SAUK CENTRE    FAIR      66  41  39 NW20G26   30.17F
PAYNESVILLE    CLOUDY    65  38  36 NW10G23   30.18F
AITKIN         MOSUNNY   61  41  48 NW8G18    30.12R
PINE RIVER     MOSUNNY   63  43  48 W10G20    30.17S
BRAINERD       MOSUNNY   64  38  38 NW22G28   30.14F
STAPLES        MOSUNNY   64  37  36 NW15      30.15F
LONG PRAIRIE   PTSUNNY   63  41  45 W12G22    30.18S
LITTLE FALLS   MOSUNNY   64  36  34 NW16G25   30.15F
LITCHFIELD     CLOUDY    66  43  42 NW17G26   30.18F
BUFFALO        MOSUNNY   65  41  41 NW12      30.16F
MAPLE LAKE     SUNNY     67  44  43 W15G22    30.17S
HUTCHINSON     MOSUNNY   67  42  40 NW15G26   30.19S
$$
MNZ037-044-045-052-053-252200-
   East Central Minnesota

CITY           SKY/WX    TMP DP  RH WIND       PRES   REMARKS
PRINCETON      PTSUNNY   66  43  42 W9G15     30.14S
MORA           MOSUNNY   63  41  45 NW15G21   30.13F
CAMBRIDGE      MOSUNNY   66  46  48 W16       30.11S
RUSH CITY      MOSUNNY   64  43  45 NW10G23   30.11S
MOOSE LAKE     CLOUDY    61  43  51 NW9G21    30.09S
HINCKLEY       MOCLDY    61  45  55 NW7G17    30.11S
CLOQUET        LGT RAIN  57  48  72 NW12G18   30.10R
MCGREGOR       PTSUNNY   61  45  55 W16G22    30.13R
$$
MNZ071>073-080-081-089-090-097-098-252200-
   Southwest Minnesota

CITY           SKY/WX    TMP DP  RH WIND       PRES   REMARKS
MONTEVIDEO     MOSUNNY   70  41  35 N9G20     30.21S
GRANITE FALLS  PTSUNNY   68  43  39 NW15      30.22F
CANBY          LGT RAIN  66  45  45 NW12G20   30.24R
MARSHALL       PTSUNNY   67  42  40 N16G23    30.22S
REDWOOD FALLS  PTSUNNY   69  40  34 N15G22    30.20S
OLIVIA         CLOUDY    68  41  37 N20G25    30.19S
PIPESTONE      MOSUNNY   68  39  34 N10G17    30.24S
WINDOM         MOSUNNY   70  37  30 NW21G30   30.22S
WORTHINGTON    MOSUNNY   67  42  40 NW16G24   30.24S
JACKSON        SUNNY     68  39  34 NW22G29   30.22F
TRACY          MOSUNNY   69  43  39 NW15G26   30.23S
SLAYTON        MOSUNNY   67  41  39 NW20G26   30.24F
$$
MNZ065>067-074>077-082>085-091>093-252200-
   South Central Minnesota

CITY           SKY/WX    TMP DP  RH WIND       PRES   REMARKS
MANKATO        MOSUNNY   67  38  34 NW20G29   30.17F
NEW ULM        MOSUNNY   66  37  34 NW23      30.19S
ST JAMES       PTSUNNY   70  41  35 NW18G29   30.21S
FAIRMONT       CLOUDY    66  41  40 NW18G24   30.20F
GLENCOE        PTSUNNY   66  45  47 NW16      30.17R
FARIBAULT      PTSUNNY   66  41  39 W17G23    30.16S
OWATONNA       MOSUNNY   66  45  45 NW16G24   30.16S
WASECA         MOSUNNY   68  43  40 NW17G26   30.18S
ALBERT LEA     MOSUNNY   68  39  34 NW12G21   30.17F
$$
MNZ078>079-086>088-094>096-252200-
   Southeast Minnesota

CITY           SKY/WX    TMP DP  RH WIND       PRES   REMARKS
ROCHESTER      MOSUNNY   66  48  52 NW21G26   30.16S
RED WING       MOSUNNY   70  39  32 NW12G23   30.11F
STANTON        MOSUNNY   67  43  42 NW14G21   30.13S
DODGE CENTER   MOSUNNY   64  43  45 NW21      30.15F
WINONA         CLOUDY    63  48  59 NW13G22   30.13R
AUSTIN         MOSUNNY   66  45  45 NW17      30.16F
PRESTON        PTSUNNY   62  48  60 NW14G24   30.16S
$$
ABBREVIATIONS USED IN REMARKS
   TC - TEMPERATURES IN CELSIUS
  WCI - WIND CHILL INDEX
   HX - HEAT INDEX
  VSB - VISIBILITY
$$




USA.gov is the U.S. government's official web portal to all federal, state and local government web resources and services.